Hourly Weather Judeida

Today, 5 December, Saturday

Time Temperature Precipitation Wind Pressure Humidity
00:00 +19°C° 0 mm 3 mps 754 mmHg 54%
01:00 +19°C° 0 mm 4 mps 753 mmHg 53%
02:00 +18°C° 0 mm 4 mps 753 mmHg 56%
03:00 +18°C° 0.5 mm 4 mps 753 mmHg 59%
04:00 +18°C° 0.5 mm 4 mps 753 mmHg 61%
05:00 +17°C° 0.5 mm 4 mps 753 mmHg 64%
06:00 +17°C° 0.2 mm 4 mps 753 mmHg 63%
07:00 +17°C° 0.2 mm 5 mps 753 mmHg 63%
08:00 +17°C° 0 mm 5 mps 753 mmHg 65%
09:00 +19°C° 0.1 mm 4 mps 753 mmHg 62%
10:00 +20°C° 0.1 mm 4 mps 754 mmHg 60%
11:00 +20°C° 0.1 mm 4 mps 754 mmHg 57%
12:00 +20°C° 0.6 mm 4 mps 753 mmHg 57%
13:00 +20°C° 0.6 mm 3 mps 753 mmHg 57%
14:00 +20°C° 0.6 mm 3 mps 753 mmHg 57%
15:00 +19°C° 0.7 mm 2 mps 753 mmHg 62%
16:00 +19°C° 0.7 mm 2 mps 753 mmHg 67%
17:00 +19°C° 0.7 mm 1 mps 753 mmHg 72%
18:00 +18°C° 0.5 mm 1 mps 753 mmHg 72%
19:00 +18°C° 0.5 mm 1 mps 753 mmHg 72%
20:00 +18°C° 0.5 mm 1 mps 753 mmHg 73%
21:00 +18°C° 0.5 mm 1 mps 754 mmHg 73%
22:00 +16°C° 0.5 mm 1 mps 754 mmHg 74%
23:00 +16°C° 0.5 mm 1 mps 754 mmHg 74%

Tomorrow, 6 December, Sunday

Time Temperature Precipitation Wind Pressure Humidity
00:00 +16°C° 0.2 mm 1 mps 754 mmHg 74%
01:00 +16°C° 0.2 mm 1 mps 754 mmHg 75%
02:00 +16°C° 0.2 mm 1 mps 754 mmHg 75%
03:00 +15°C° 0.3 mm 1 mps 754 mmHg 76%
04:00 +15°C° 0.3 mm 1 mps 754 mmHg 76%
05:00 +15°C° 0.3 mm 2 mps 754 mmHg 77%
06:00 +16°C° 0.2 mm 2 mps 754 mmHg 76%
07:00 +16°C° 0.2 mm 2 mps 755 mmHg 75%
08:00 +17°C° 0.2 mm 2 mps 755 mmHg 74%
09:00 +18°C° 0.2 mm 3 mps 755 mmHg 70%
10:00 +19°C° 0.2 mm 3 mps 755 mmHg 67%
11:00 +20°C° 0.2 mm 3 mps 755 mmHg 64%
12:00 +19°C° 0.4 mm 3 mps 755 mmHg 65%
13:00 +19°C° 0.4 mm 3 mps 755 mmHg 66%
14:00 +19°C° 0.4 mm 3 mps 754 mmHg 67%
15:00 +19°C° 0.1 mm 3 mps 754 mmHg 71%
16:00 +18°C° 0.1 mm 2 mps 754 mmHg 74%
17:00 +18°C° 0.1 mm 1 mps 755 mmHg 77%
18:00 +18°C° 0 mm 1 mps 755 mmHg 78%
19:00 +18°C° 0 mm 1 mps 755 mmHg 79%
20:00 +16°C° 0 mm 1 mps 755 mmHg 79%
21:00 +16°C° 0 mm 2 mps 755 mmHg 80%
22:00 +16°C° 0 mm 2 mps 756 mmHg 81%
23:00 +16°C° 0 mm 2 mps 756 mmHg 81%

Day after tomorrow, 7 December, Monday

Time Temperature Precipitation Wind Pressure Humidity
00:00 +15°C° 0 mm 2 mps 756 mmHg 81%
01:00 +15°C° 0 mm 2 mps 755 mmHg 81%
02:00 +15°C° 0 mm 2 mps 755 mmHg 82%
03:00 +15°C° 0 mm 2 mps 755 mmHg 82%
04:00 +15°C° 0 mm 2 mps 756 mmHg 82%
05:00 +15°C° 0 mm 2 mps 756 mmHg 82%
06:00 +14°C° 0 mm 3 mps 756 mmHg 80%
07:00 +16°C° 0 mm 3 mps 756 mmHg 78%
08:00 +17°C° 0 mm 3 mps 756 mmHg 76%
09:00 +18°C° 0 mm 3 mps 756 mmHg 69%
10:00 +19°C° 0 mm 3 mps 756 mmHg 62%
11:00 +20°C° 0 mm 3 mps 756 mmHg 55%
12:00 +21°C° 0 mm 3 mps 756 mmHg 52%
13:00 +21°C° 0 mm 3 mps 755 mmHg 49%
14:00 +22°C° 0 mm 3 mps 755 mmHg 46%
15:00 +20°C° 0 mm 3 mps 755 mmHg 49%
16:00 +19°C° 0 mm 3 mps 755 mmHg 52%
17:00 +18°C° 0 mm 3 mps 755 mmHg 55%
18:00 +18°C° 0 mm 3 mps 755 mmHg 54%
19:00 +17°C° 0 mm 3 mps 756 mmHg 53%
20:00 +17°C° 0 mm 3 mps 756 mmHg 53%
21:00 +17°C° 0 mm 4 mps 756 mmHg 53%
22:00 +17°C° 0 mm 4 mps 756 mmHg 53%
23:00 +16°C° 0 mm 5 mps 756 mmHg 53%

8 December, Tuesday

Time Temperature Precipitation Wind Pressure Humidity
00:00 +16°C° 0 mm 5 mps 755 mmHg 51%
01:00 +16°C° 0 mm 5 mps 755 mmHg 49%
02:00 +16°C° 0 mm 5 mps 755 mmHg 47%
03:00 +16°C° 0 mm 5 mps 755 mmHg 46%
04:00 +16°C° 0 mm 6 mps 755 mmHg 45%
05:00 +16°C° 0 mm 6 mps 755 mmHg 45%
06:00 +16°C° 0 mm 6 mps 755 mmHg 46%
07:00 +17°C° 0 mm 6 mps 755 mmHg 46%
08:00 +17°C° 0 mm 6 mps 756 mmHg 47%
09:00 +19°C° 0 mm 6 mps 756 mmHg 45%
10:00 +21°C° 0 mm 6 mps 756 mmHg 43%
11:00 +22°C° 0 mm 6 mps 756 mmHg 41%
12:00 +22°C° 0 mm 6 mps 756 mmHg 47%
13:00 +22°C° 0 mm 7 mps 755 mmHg 52%
14:00 +22°C° 0 mm 7 mps 755 mmHg 58%
15:00 +21°C° 0.3 mm 6 mps 755 mmHg 68%
16:00 +19°C° 0.3 mm 5 mps 756 mmHg 77%
17:00 +18°C° 0.3 mm 4 mps 756 mmHg 87%
18:00 +18°C° 0.3 mm 4 mps 756 mmHg 86%
19:00 +18°C° 0.3 mm 4 mps 757 mmHg 85%
20:00 +17°C° 0.3 mm 5 mps 757 mmHg 85%
21:00 +18°C° 0.1 mm 4 mps 757 mmHg 83%
22:00 +18°C° 0.1 mm 4 mps 757 mmHg 82%
23:00 +17°C° 0.1 mm 4 mps 758 mmHg 80%

9 December, Wednesday

Time Temperature Precipitation Wind Pressure Humidity
00:00 +17°C° 0.2 mm 4 mps 758 mmHg 81%
01:00 +17°C° 0.2 mm 3 mps 758 mmHg 83%
02:00 +17°C° 0.2 mm 3 mps 758 mmHg 84%
03:00 +17°C° 0.2 mm 3 mps 758 mmHg 83%
04:00 +16°C° 0.2 mm 3 mps 758 mmHg 83%
05:00 +16°C° 0.2 mm 3 mps 758 mmHg 82%
06:00 +17°C° 0.1 mm 3 mps 758 mmHg 80%
07:00 +17°C° 0.1 mm 3 mps 759 mmHg 78%
08:00 +18°C° 0.1 mm 3 mps 759 mmHg 76%
09:00 +19°C° 0 mm 3 mps 759 mmHg 70%
10:00 +19°C° 0 mm 3 mps 759 mmHg 64%
11:00 +20°C° 0 mm 3 mps 759 mmHg 58%
12:00 +20°C° 0 mm 3 mps 759 mmHg 58%
13:00 +20°C° 0 mm 3 mps 759 mmHg 58%
14:00 +20°C° 0 mm 3 mps 758 mmHg 58%
15:00 +19°C° 0 mm 2 mps 758 mmHg 63%
16:00 +18°C° 0 mm 2 mps 758 mmHg 68%
17:00 +17°C° 0 mm 2 mps 758 mmHg 73%
18:00 +17°C° 0 mm 2 mps 758 mmHg 74%
19:00 +18°C° 0 mm 1 mps 759 mmHg 75%
20:00 +16°C° 0 mm 1 mps 759 mmHg 76%
21:00 +16°C° 0 mm 1 mps 759 mmHg 76%
22:00 +16°C° 0 mm 1 mps 759 mmHg 76%
23:00 +16°C° 0 mm 1 mps 759 mmHg 76%

10 December, Thursday

Time Temperature Precipitation Wind Pressure Humidity
00:00 +15°C° 0 mm 1 mps 759 mmHg 76%
01:00 +15°C° 0 mm 1 mps 759 mmHg 77%
02:00 +15°C° 0 mm 1 mps 759 mmHg 77%
03:00 +15°C° 0 mm 1 mps 758 mmHg 77%
04:00 +14°C° 0 mm 2 mps 758 mmHg 77%
05:00 +14°C° 0 mm 2 mps 758 mmHg 77%
06:00 +15°C° 0 mm 2 mps 758 mmHg 75%
07:00 +15°C° 0 mm 2 mps 758 mmHg 73%
08:00 +16°C° 0 mm 2 mps 759 mmHg 70%
09:00 +17°C° 0 mm 3 mps 758 mmHg 65%
10:00 +18°C° 0 mm 3 mps 758 mmHg 60%
11:00 +20°C° 0 mm 4 mps 758 mmHg 55%
12:00 +20°C° 0 mm 3 mps 757 mmHg 52%
13:00 +21°C° 0 mm 3 mps 757 mmHg 48%
14:00 +21°C° 0 mm 3 mps 756 mmHg 45%
15:00 +20°C° 0 mm 3 mps 756 mmHg 48%
16:00 +19°C° 0 mm 2 mps 756 mmHg 50%
17:00 +18°C° 0 mm 2 mps 756 mmHg 53%
18:00 +17°C° 0 mm 3 mps 756 mmHg 53%
19:00 +17°C° 0 mm 3 mps 756 mmHg 54%
20:00 +17°C° 0 mm 3 mps 756 mmHg 54%
21:00 +17°C° 0 mm 3 mps 756 mmHg 54%
22:00 +17°C° 0 mm 3 mps 756 mmHg 53%
23:00 +15°C° 0 mm 4 mps 756 mmHg 53%
Show more